User: anonymous
Location: Unspecified
(0.0000°N, 0.0000°E)
Time: 14:36:39
(UTC+00:00)
Language:

OPTUS D3 - Orbit

View from above orbital plane
View from above orbital plane
View from above satellite
View from above satellite

Ground track
Ground track

The orbit data is extracted from the following two-line orbital elements,

1 35756U 09044B   14230.86065367 -.00000173  00000-0  10000-3 0  1251
2 35756 000.0442 334.3412 0002631 170.8279 287.7792 01.00271084 18323
Epoch (UTC): 18 August 2014 20:39:20
Eccentricity: 0.0002631
inclination: 0.0442°
perigee height: 35775 km
apogee height: 35797 km
right ascension of ascending node: 334.3412°
argument of perigee: 170.8279°
revolutions per day: 1.00271084
mean anomaly at epoch: 287.7792°
orbit number at epoch: 1832

The dashed part of the orbit path shows where the satellite is in the earth's shadow,  

DLR